Карточка аэропорта UHBB

Внимание!
Информация на этой странице в стадии наполнения.
Если вы не увидели какой-то информации, или заметили неточность - пожалуйста сообщите нам!
Спасибо!
Команда RU-STAFF
Название аэропортаИгнатьево
Название аэропорта (англ.)Ignatyevo
Превышение640 ft. (195.1 m.)
Координаты50°25.536', 127°24.72'
Высота перехода900m
Эшелон переходаFL060 (<1013 hpa / 760 mm); FL070 (<977 hpa / 733 mm)
Коды ответчика1601-1617
Зона ОрВДХабаровск РПИ (UHHH)
Данные METARUHBB 270930Z 23002MPS CAVOK M27/M33 Q1016 R36/810250 NOSIG RMK QFE745/0993
Проноз погоды (TAF)UHBB 270732Z 2709/2809 32003MPS 9999 FEW033= UHSS 270750Z 2709/2815 35003MPS 9999 SCT040CB
NOTAMshow/hide NOTAM
AWOS   TABLE

Информация о ВПП

ВПП Длина ВПП (м.) Покрытие Курс ВПП Частота ILS
182800Асфальтобетон180 
362800Асфальтобетон360108.7

Диспетчерские позиции

Позывной Наименование органа УВД Частота
UHBB_TWRБлаговещенск-Вышка127.2



Спутниковое изображение